Overview Statistics Trail Chart Weather Telemetry Raw packets
 

This is the latest recevied weather packets stored in our database for station/object KV9E. If no packets are shown the sender has not sent any weather packets the latest 10 day(s).

<< 36 37 38 39 40 41 42 >>
Time Temp. Humidity Pressure Rain* Wind** Luminosity Snow
1788368240 30.56° C 61% 1020.5 hPa 0 mm - 574 W/m² -
1788367935 30.56° C 61% 1020.8 hPa 0 mm - 573 W/m² -
1788367634 30.56° C 62% 1020.7 hPa 0 mm - 551 W/m² -
1788367329 30.56° C 64% 1020.6 hPa 0 mm - 85 W/m² -
1788367023 30° C 66% 1020.8 hPa 0 mm - 522 W/m² -
1788366718 30° C 66% 1021 hPa 0 mm - 99 W/m² -
1788366416 30° C 66% 1021 hPa 0 mm - 115 W/m² -
1788366111 30° C 66% 1020.7 hPa 0 mm - 201 W/m² -
1788365806 29.44° C 67% 1020.9 hPa 0 mm - 242 W/m² -
1788365501 29.44° C 66% 1021.2 hPa 0 mm - 77 W/m² -
1788365198 29.44° C 68% 1021.2 hPa 0 mm - 89 W/m² -
1788364893 29.44° C 66% 1021 hPa 0 mm - 64 W/m² -
1788364591 29.44° C 68% 1021.2 hPa 0 mm - 63 W/m² -
1788364290 28.89° C 70% 1021 hPa 0 mm - 102 W/m² -
1788363985 28.89° C 69% 1021.4 hPa 0 mm - 58 W/m² -
1788363680 28.89° C 69% 1021.2 hPa 0 mm - 57 W/m² -
1788363379 28.89° C 69% 1020.9 hPa 0 mm - 57 W/m² -
1788363075 28.89° C 68% 1021.2 hPa 0 mm - 61 W/m² -
1788362771 28.33° C 67% 1021.3 hPa 0 mm - 122 W/m² -
1788362466 28.33° C 70% 1021.2 hPa 0 mm - 92 W/m² -
1788362162 28.33° C 67% 1021.3 hPa 0 mm - 56 W/m² -
1788361861 28.33° C 72% 1021.4 hPa 0 mm - 57 W/m² -
1788361556 28.33° C 71% 1021.3 hPa 0 mm - 55 W/m² -
1788361252 28.33° C 70% 1021 hPa 0 mm - 53 W/m² -
1788360946 27.78° C 74% 1020.9 hPa 0 mm - 53 W/m² -

* Rain latest hour (hover to see other rain measurements)
** Current wind speed in m/s (hover to see current wind gust speed)